This is the latest recevied weather packets stored in our database for station/object F6DEV-13. If no packets are shown the sender has not sent any weather packets the latest 1 day(s).
| Time | Temp. | Humidity | Pressure | Rain* | Wind** | Luminosity | Snow |
|---|---|---|---|---|---|---|---|
| 1778087500 | 13.89° C | 58% | 1011 hPa | 0 mm | - | - | - |
| 1778086840 | 14.44° C | 55% | 1010 hPa | 0 mm | - | - | - |
| 1778084981 | 14.44° C | 59% | 1010 hPa | 0 mm | - | - | - |
| 1778084675 | 13.89° C | 58% | 1010 hPa | 0 mm | - | - | - |
| 1778083743 | 13.89° C | 60% | 1010 hPa | 0 mm | - | - | - |
| 1778083115 | 13.89° C | 59% | 1010 hPa | 0 mm | - | - | - |
| 1778080634 | 14.44° C | 58% | 1009 hPa | 0 mm | - | - | - |
| 1778079992 | 15° C | 56% | 1009 hPa | 0 mm | - | - | - |
| 1778078403 | 15.56° C | 53% | 1009 hPa | 0 mm | - | - | - |
| 1778078113 | 15.56° C | 54% | 1009 hPa | 0 mm | - | - | - |
| 1778077782 | 15.56° C | 53% | 1009 hPa | 0 mm | - | - | - |
| 1778075891 | 16.67° C | 46% | 1009 hPa | 0 mm | - | - | - |
| 1778074930 | 16.11° C | 47% | 1009 hPa | 0 mm | - | - | - |
| 1778074627 | 16.67° C | 46% | 1009 hPa | 0 mm | - | - | - |
| 1778073037 | 16.67° C | 45% | 1009.1 hPa | 0 mm | - | - | - |
| 1778072703 | 16.67° C | 44% | 1010 hPa | 0 mm | - | - | - |
| 1778071119 | 16.11° C | 46% | 1010 hPa | 0 mm | - | - | - |
| 1778069884 | 16.11° C | 45% | 1010 hPa | 0 mm | - | - | - |
| 1778068925 | 16.67° C | 45% | 1010 hPa | 0 mm | - | - | - |
| 1778068330 | 17.22° C | 45% | 1010 hPa | 0 mm | - | - | - |
| 1778067701 | 17.22° C | 47% | 1010 hPa | 0 mm | - | - | - |
| 1778067393 | 16.67° C | 46% | 1010 hPa | 0 mm | - | - | - |
| 1778067063 | 16.11° C | 48% | 1010 hPa | 0 mm | - | - | - |
| 1778066799 | 15.56° C | 47% | 1010 hPa | 0 mm | - | - | - |
| 1778065845 | 15.56° C | 46% | 1010 hPa | 0 mm | - | - | - |
* Rain latest hour (hover to see other rain measurements)
** Current wind speed in m/s (hover to see current wind gust speed)